Home   Weather   Pasadena   Past weeks
Flag for USA

Past Weather in Pasadena, Texas, USA — Yesterday and Last 2 Weeks

Now
66 °F

Overcast.


Feels Like: 66 °F
Forecast: 75 / 55 °F
Wind: 7 mph from South

Location: Houston / Ellington

Current Time: Mar 20, 2019 at 9:02:45 pm

Latest Report: Mar 20, 2019 at 7:50 pm


Visibility: 10 mi

Pressure: 30.16 "Hg

Humidity: 46%

Dew Point: 45 °F

Location of PasadenaLocation

Past Weather in Pasadena — Graph

°F

Pasadena Temperature Yesterday

Maximum temperature yesterday: 68 °F (at 12:50 pm)
Minimum temperature yesterday: 55 °F (at 4:50 am)
Average temperature yesterday: 60 °F

High & Low Weather Summary for the Past Weeks

 TemperatureHumidityPressure
High82 °F (Mar 11, 12:50 pm)100% (Mar 10, 5:50 am)30.51 "Hg (Mar 10, 5:50 am)
Low36 °F (Mar 6, 3:50 am)27% (Mar 20, 3:50 pm)29.69 "Hg (Mar 13, 8:50 pm)
Average63 °F68%30.14 "Hg
* Reported Mar 5 5:50 pm — Mar 20 6:50 pm, Pasadena. Weather by CustomWeather, © 2019

Note: Actual official high and low records may vary slightly from our data, if they occured in-between our weather recording intervals... More about our weather records

Advertising

Pasadena Weather History for the Previous 24 Hours

Scroll right to see more
 ConditionsComfort  
Time TempWeatherWind HumidityBarometerVisibility
6:50 pm
Wed, Mar 20
73 °FScattered clouds.10 mph33%30.15 "Hg10 mi
5:50 pm73 °FScattered clouds.3 mph31%30.15 "Hg10 mi
4:50 pm75 °FPassing clouds.5 mph29%30.15 "Hg10 mi
3:50 pm75 °FPassing clouds.No wind27%30.17 "Hg10 mi
2:50 pm73 °FPartly sunny.5 mph29%30.19 "Hg10 mi
1:50 pm72 °FPassing clouds.3 mph31%30.21 "Hg10 mi
12:50 pm70 °FScattered clouds.7 mph38%30.23 "Hg10 mi
11:50 am68 °FScattered clouds.5 mph43%30.26 "Hg10 mi
10:50 am66 °FPassing clouds.5 mph46%30.27 "Hg10 mi
9:50 am64 °FPassing clouds.5 mph60%30.27 "Hg10 mi
8:50 am61 °FPassing clouds.No wind68%30.25 "Hg10 mi
7:50 am54 °FPassing clouds.No wind77%30.23 "Hg10 mi
6:50 am54 °FPassing clouds.3 mph77%30.22 "Hg10 mi
5:50 am52 °FPassing clouds.No wind77%30.19 "Hg10 mi
4:50 am52 °FPassing clouds.No wind82%30.19 "Hg10 mi
3:50 am52 °FPassing clouds.No wind82%30.20 "Hg10 mi
2:50 am54 °FPassing clouds.No wind77%30.22 "Hg10 mi
1:50 am55 °FPassing clouds.No wind72%30.22 "Hg10 mi
12:50 am55 °FPassing clouds.No wind72%30.22 "Hg10 mi
11:50 pm
Tue, Mar 19
55 °FPassing clouds.No wind72%30.24 "Hg10 mi
10:50 pm57 °FPassing clouds.No wind63%30.24 "Hg10 mi
9:50 pm57 °FPassing clouds.No wind63%30.23 "Hg10 mi
Weather by CustomWeather, © 2019

See weather overview